When you browse on this site, cookies collect data to enhance your experience and personalize the content and advertising you see.
Visit our Privacy Policy to learn more. By continuing to use the site, you agree to this use of cookies and data.
EN

Hourly Weather Brčko

Today, 6 July, Monday

Time Temperature Precipitation Wind Pressure Humidity
00:00 +19°C° 0 mm 1 mps 752 mmHg 76%
01:00 +19°C° 0 mm 1 mps 752 mmHg 78%
02:00 +19°C° 0 mm 1 mps 752 mmHg 80%
03:00 +18°C° 0 mm 1 mps 751 mmHg 81%
04:00 +18°C° 0 mm 1 mps 751 mmHg 83%
05:00 +19°C° 0 mm 1 mps 751 mmHg 80%
06:00 +21°C° 0 mm 1 mps 751 mmHg 76%
07:00 +23°C° 0 mm 1 mps 751 mmHg 73%
08:00 +24°C° 0 mm 1 mps 751 mmHg 68%
09:00 +26°C° 0 mm 1 mps 750 mmHg 64%
10:00 +27°C° 0 mm 1 mps 750 mmHg 60%
11:00 +28°C° 0 mm 1 mps 750 mmHg 57%
12:00 +29°C° 0 mm 1 mps 749 mmHg 55%
13:00 +30°C° 0 mm 2 mps 749 mmHg 52%
14:00 +30°C° 0 mm 1 mps 748 mmHg 52%
15:00 +30°C° 0 mm 1 mps 748 mmHg 52%
16:00 +30°C° 0 mm 1 mps 747 mmHg 52%
17:00 +29°C° 0 mm 1 mps 748 mmHg 57%
18:00 +27°C° 0 mm 1 mps 748 mmHg 62%
19:00 +24°C° 0 mm 0 mps 748 mmHg 67%
20:00 +25°C° 0 mm 1 mps 748 mmHg 70%
21:00 +24°C° 0 mm 1 mps 749 mmHg 72%
22:00 +23°C° 0 mm 2 mps 749 mmHg 74%
23:00 +21°C° 0.1 mm 4 mps 750 mmHg 73%

Tomorrow, 7 July, Tuesday

Time Temperature Precipitation Wind Pressure Humidity
00:00 +20°C° 0.1 mm 5 mps 750 mmHg 72%
01:00 +18°C° 0.1 mm 7 mps 751 mmHg 70%
02:00 +17°C° 0 mm 6 mps 752 mmHg 70%
03:00 +17°C° 0 mm 5 mps 753 mmHg 69%
04:00 +16°C° 0 mm 5 mps 754 mmHg 68%
05:00 +16°C° 0 mm 5 mps 754 mmHg 71%
06:00 +15°C° 0 mm 4 mps 755 mmHg 74%
07:00 +15°C° 0 mm 4 mps 756 mmHg 77%
08:00 +17°C° 0 mm 4 mps 756 mmHg 73%
09:00 +18°C° 0 mm 4 mps 756 mmHg 68%
10:00 +19°C° 0 mm 3 mps 756 mmHg 64%
11:00 +20°C° 0 mm 3 mps 756 mmHg 61%
12:00 +21°C° 0 mm 3 mps 755 mmHg 58%
13:00 +22°C° 0 mm 3 mps 755 mmHg 55%
14:00 +22°C° 0 mm 3 mps 755 mmHg 56%
15:00 +22°C° 0 mm 3 mps 755 mmHg 56%
16:00 +23°C° 0 mm 2 mps 755 mmHg 57%
17:00 +21°C° 0 mm 2 mps 755 mmHg 62%
18:00 +20°C° 0 mm 2 mps 755 mmHg 67%
19:00 +20°C° 0 mm 1 mps 755 mmHg 72%
20:00 +18°C° 0 mm 1 mps 755 mmHg 74%
21:00 +16°C° 0 mm 1 mps 756 mmHg 76%
22:00 +15°C° 0 mm 1 mps 756 mmHg 79%
23:00 +14°C° 0 mm 1 mps 756 mmHg 80%

Day after tomorrow, 8 July, Wednesday

Time Temperature Precipitation Wind Pressure Humidity
00:00 +14°C° 0 mm 1 mps 756 mmHg 81%
01:00 +13°C° 0 mm 1 mps 756 mmHg 82%
02:00 +13°C° 0 mm 1 mps 756 mmHg 83%
03:00 +13°C° 0 mm 1 mps 756 mmHg 84%
04:00 +12°C° 0 mm 1 mps 756 mmHg 86%
05:00 +13°C° 0 mm 0 mps 756 mmHg 81%
06:00 +15°C° 0 mm 0 mps 756 mmHg 76%
07:00 +17°C° 0 mm 0 mps 756 mmHg 71%
08:00 +19°C° 0 mm 0 mps 756 mmHg 66%
09:00 +22°C° 0 mm 1 mps 756 mmHg 62%
10:00 +24°C° 0 mm 1 mps 756 mmHg 57%
11:00 +25°C° 0 mm 1 mps 755 mmHg 54%
12:00 +25°C° 0 mm 2 mps 755 mmHg 52%
13:00 +26°C° 0 mm 2 mps 755 mmHg 49%
14:00 +26°C° 0 mm 2 mps 755 mmHg 50%
15:00 +26°C° 0 mm 2 mps 754 mmHg 52%
16:00 +26°C° 0 mm 2 mps 754 mmHg 53%
17:00 +25°C° 0 mm 2 mps 754 mmHg 59%
18:00 +23°C° 0 mm 1 mps 755 mmHg 66%
19:00 +21°C° 0 mm 1 mps 755 mmHg 72%
20:00 +20°C° 0 mm 1 mps 755 mmHg 74%
21:00 +19°C° 0 mm 1 mps 755 mmHg 77%
22:00 +18°C° 0 mm 1 mps 756 mmHg 79%
23:00 +16°C° 0 mm 1 mps 756 mmHg 81%

9 July, Thursday

Time Temperature Precipitation Wind Pressure Humidity
00:00 +16°C° 0 mm 1 mps 756 mmHg 82%
01:00 +15°C° 0 mm 1 mps 756 mmHg 84%
02:00 +15°C° 0 mm 1 mps 756 mmHg 85%
03:00 +15°C° 0 mm 1 mps 756 mmHg 86%
04:00 +15°C° 0 mm 1 mps 756 mmHg 87%
05:00 +16°C° 0 mm 1 mps 756 mmHg 83%
06:00 +19°C° 0 mm 1 mps 756 mmHg 78%
07:00 +21°C° 0 mm 1 mps 757 mmHg 73%
08:00 +23°C° 0 mm 1 mps 757 mmHg 67%
09:00 +25°C° 0 mm 2 mps 757 mmHg 62%
10:00 +27°C° 0 mm 3 mps 757 mmHg 56%
11:00 +27°C° 0 mm 3 mps 756 mmHg 54%
12:00 +28°C° 0 mm 4 mps 756 mmHg 53%
13:00 +29°C° 0 mm 4 mps 756 mmHg 52%
14:00 +29°C° 0 mm 4 mps 755 mmHg 54%
15:00 +29°C° 0 mm 4 mps 755 mmHg 56%
16:00 +29°C° 0 mm 4 mps 755 mmHg 58%
17:00 +27°C° 0 mm 4 mps 755 mmHg 64%
18:00 +25°C° 0 mm 3 mps 755 mmHg 70%
19:00 +24°C° 0 mm 3 mps 755 mmHg 76%
20:00 +22°C° 0 mm 3 mps 755 mmHg 78%
21:00 +21°C° 0 mm 3 mps 755 mmHg 79%
22:00 +19°C° 0 mm 2 mps 755 mmHg 81%
23:00 +19°C° 0 mm 2 mps 755 mmHg 83%

10 July, Friday

Time Temperature Precipitation Wind Pressure Humidity
00:00 +18°C° 0 mm 2 mps 755 mmHg 85%
01:00 +18°C° 0 mm 2 mps 755 mmHg 87%
02:00 +17°C° 0 mm 2 mps 754 mmHg 88%
03:00 +17°C° 0 mm 2 mps 754 mmHg 89%
04:00 +18°C° 0 mm 1 mps 754 mmHg 89%
05:00 +19°C° 0 mm 1 mps 754 mmHg 84%
06:00 +21°C° 0 mm 1 mps 754 mmHg 79%
07:00 +23°C° 0 mm 1 mps 754 mmHg 74%
08:00 +25°C° 0 mm 1 mps 754 mmHg 69%
09:00 +26°C° 0 mm 2 mps 754 mmHg 64%
10:00 +28°C° 0 mm 2 mps 753 mmHg 59%
11:00 +29°C° 0 mm 3 mps 753 mmHg 57%
12:00 +30°C° 0 mm 3 mps 752 mmHg 55%
13:00 +31°C° 0 mm 3 mps 752 mmHg 54%
14:00 +33°C° 0 mm 3 mps 752 mmHg 55%
15:00 +33°C° 0 mm 4 mps 751 mmHg 56%
16:00 +33°C° 0 mm 4 mps 751 mmHg 58%
17:00 +30°C° 0 mm 3 mps 751 mmHg 64%
18:00 +28°C° 0 mm 2 mps 751 mmHg 69%
19:00 +27°C° 0 mm 2 mps 751 mmHg 75%
20:00 +26°C° 0 mm 2 mps 751 mmHg 77%
21:00 +25°C° 0 mm 2 mps 751 mmHg 78%
22:00 +24°C° 0 mm 1 mps 751 mmHg 80%
23:00 +23°C° 0 mm 1 mps 751 mmHg 81%

11 July, Saturday

Time Temperature Precipitation Wind Pressure Humidity
00:00 +23°C° 0 mm 1 mps 751 mmHg 83%
01:00 +22°C° 0 mm 1 mps 751 mmHg 85%
02:00 +22°C° 0 mm 1 mps 751 mmHg 86%
03:00 +21°C° 0 mm 1 mps 751 mmHg 87%
04:00 +21°C° 0 mm 1 mps 751 mmHg 89%
05:00 +22°C° 0 mm 1 mps 751 mmHg 84%
06:00 +24°C° 0 mm 1 mps 751 mmHg 79%
07:00 +25°C° 0 mm 1 mps 752 mmHg 74%
08:00 +27°C° 0 mm 1 mps 752 mmHg 69%
09:00 +29°C° 0 mm 2 mps 752 mmHg 64%
10:00 +30°C° 0 mm 2 mps 752 mmHg 58%
11:00 +31°C° 0 mm 2 mps 752 mmHg 56%
12:00 +31°C° 0 mm 2 mps 752 mmHg 54%
13:00 +32°C° 0 mm 2 mps 752 mmHg 51%
14:00 +32°C° 0.1 mm 2 mps 752 mmHg 53%
15:00 +33°C° 0.1 mm 3 mps 752 mmHg 55%
16:00 +31°C° 0.1 mm 3 mps 752 mmHg 57%
17:00 +29°C° 0.8 mm 4 mps 752 mmHg 66%
18:00 +26°C° 0.8 mm 4 mps 753 mmHg 75%
19:00 +22°C° 0.8 mm 5 mps 753 mmHg 84%
20:00 +20°C° 0.4 mm 4 mps 754 mmHg 86%
21:00 +19°C° 0.4 mm 4 mps 755 mmHg 88%
22:00 +17°C° 0.4 mm 3 mps 756 mmHg 90%
23:00 +17°C° 0 mm 3 mps 756 mmHg 88%
Show more